(473559) = 2005 VL62 = 2015 XC210

Discovered at Mount Lemmon on 2005-11-01 by Mt. Lemmon Survey.

Orbit

Orbit type: Main Belt

Note: WebGL enabled browser required.

epoch2022-01-21.0
epoch JD2459600.5
perihelion date2019-09-16.47636
perihelion JD2458742.97636
argument of perihelion (°)105.61819
ascending node (°)249.74016
inclination (°)4.78284
eccentricity0.0491177
perihelion distance (AU)2.6684628
Tisserand w.r.t. Jupiter3.3
ΔV w.r.t. Earth (km/sec)10.3
semimajor axis (AU)2.8063018
mean anomaly (°)179.78290
mean daily motion (°/day)0.20965360
aphelion distance (AU)2.944
period (years)4.7
P-vector [x]0.99357425
P-vector [y]-0.10512216
P-vector [z]0.04194690
Q-vector [x]0.08180292
Q-vector [y]0.92310442
Q-vector [z]0.37574794
absolute magnitude17.11
phase slope0.15
uncertainty0
referenceMPO 700425
observations used130
oppositions10
arc length (days)6019
first opposition used2005
last opposition used2022
residual rms (arc-secs)0.80
perturbers coarse indicatorM-v
perturbers precise indicator003Ek
first observation date used2005-11-01.0
last observation date used2022-04-25.0
computer namePan
JD of orbit computation2457614.478042
perihelion JD uncertainty (days)2.3681E-04
argument of perihelion uncertainty (°)6.3281E-05
ascending node uncertainty (°)3.8260E-05
inclination uncertainty (°)4.8155E-06
eccentricity uncertainty 3.2465E-08
perihelion distance uncertainty (AU)8.3955E-08
Minimum Orbit Intersection Distances (in AU)
for orbit epoch: 2458200.5, reference: MPO409172
Mercury2.28395
Venus1.95276
Earth1.66865
Mars1.24612
Jupiter2.26987
Saturn6.24364
Uranus15.2651
Neptune27.1135

Observations

134 total observations over interval: 2005 11 01.20880 – 2022 04 25.349325
These data are available for download (format description).

